EW1587 Weather Reports


time (UTC)temp
C
wind
direction
speed
KPH
gust
KPH
rain 1hr
cm
rain 24hr
cm
rain mn
cm
humidity
%
barometer
mb
20260903150055 26 100 3.2 11.3 0.00 0.00 0.00 80 1008.5
20260903145554 25 75 3.2 11.3 0.00 0.00 0.00 81 1008.5
20260903145053 25 174 0.0 9.7 0.00 0.00 0.00 84 1008.4
20260903144552 24 117 3.2 11.3 0.00 0.00 0.00 84 1008.3
20260903144052 24 87 3.2 11.3 0.00 0.00 0.00 85 1008.4
20260903143548 23 111 4.8 11.3 0.00 0.00 0.00 85 1008.5
20260903143105 23 81 3.2 9.7 0.00 0.00 0.00 86 1008.4
20260903142546 23 124 3.2 11.3 0.00 0.00 0.00 87 1008.4
20260903142045 23 113 6.4 11.3 0.00 0.00 0.00 87 1008.5
20260903141544 23 89 0.0 11.3 0.00 0.00 0.00 89 1008.7
20260903141045 22 97 3.2 11.3 0.00 0.00 0.00 90 1008.7
20260903140541 22 103 3.2 8.0 0.00 0.00 0.00 91 1008.7
20260903140039 22 75 1.6 8.0 0.00 0.00 0.00 92 1008.8
20260903135539 22 91 3.2 8.0 0.00 0.00 0.00 92 1008.9
20260903135038 22 89 3.2 8.0 0.00 0.00 0.00 92 1009.0
20260903134537 21 90 1.6 8.0 0.00 0.00 0.00 92 1009.0
20260903134038 21 117 4.8 8.0 0.00 0.00 0.00 92 1009.1
20260903133537 21 97 3.2 6.4 0.00 0.00 0.00 92 1009.3
20260903133036 21 86 3.2 6.4 0.00 0.00 0.00 93 1009.2
20260903132535 21 103 1.6 6.4 0.00 0.00 0.00 94 1009.1
20260903132035 21 88 3.2 6.4 0.00 0.00 0.00 93 1008.9
20260903131538 21 94 3.2 6.4 0.00 0.00 0.00 94 1008.9
20260903131036 21 94 3.2 6.4 0.00 0.00 0.00 96 1008.9
20260903130538 20 79 3.2 6.4 0.00 0.00 0.00 96 1008.8
20260903130035 20 89 3.2 6.4 0.00 0.00 0.00 97 1008.8
20260903125535 20 81 1.6 9.7 0.00 0.00 0.00 97 1008.7
20260903125034 20 81 3.2 8.0 0.00 0.00 0.00 97 1008.8
20260903124539 20 96 4.8 12.9 0.00 0.00 0.00 97 1009.0
20260903124034 20 96 4.8 12.9 0.00 0.00 0.00 97 1009.0
20260903123535 19 85 3.2 8.0 0.00 0.00 0.00 97 1008.9
20260903123039 19 100 1.6 6.4 0.00 0.00 0.00 97 1008.9
20260903122534 19 65 3.2 6.4 0.00 0.00 0.00 97 1008.8
20260903122034 19 65 1.6 6.4 0.00 0.00 0.00 97 1008.8
20260903121535 19 91 1.6 8.0 0.00 0.00 0.00 97 1008.7
20260903121034 19 81 3.2 8.0 0.00 0.00 0.00 97 1008.8
20260903120536 19 101 3.2 6.4 0.00 0.00 0.00 97 1008.8
20260903120035 19 92 3.2 6.4 0.00 0.00 0.00 96 1008.8
20260903115534 19 86 3.2 8.0 0.00 0.00 0.00 96 1008.9
20260903115035 19 79 3.2 9.7 0.00 0.00 0.00 96 1008.8
20260903114533 19 82 1.6 9.7 0.00 0.00 0.00 96 1008.8
20260903114034 19 86 3.2 8.0 0.00 0.00 0.00 96 1009.0
20260903113532 19 91 3.2 8.0 0.00 0.00 0.00 96 1008.8
20260903113040 19 97 3.2 8.0 0.00 0.00 0.00 97 1008.7
20260903112531 19 92 1.6 8.0 0.00 0.00 0.00 96 1008.6
20260903112030 19 107 3.2 6.4 0.00 0.00 0.00 96 1008.6
20260903111530 19 95 3.2 6.4 0.00 0.00 0.00 96 1008.6
20260903111032 19 84 1.6 4.8 0.00 0.00 0.00 96 1008.6
20260903110529 19 91 3.2 4.8 0.00 0.00 0.00 96 1008.7
20260903110032 19 74 1.6 6.4 0.00 0.00 0.00 96 1008.8
20260903105529 19 90 3.2 6.4 0.00 0.00 0.00 96 1008.8
20260903105029 19 101 3.2 6.4 0.00 0.00 0.00 96 1008.9
20260903104529 19 96 3.2 6.4 0.00 0.00 0.00 96 1009.0
20260903104028 19 77 1.6 6.4 0.00 0.00 0.00 96 1008.9
20260903103528 19 71 1.6 6.4 0.00 0.00 0.00 96 1009.0
20260903103028 19 98 1.6 4.8 0.00 0.00 0.00 96 1008.9
20260903102528 19 65 0.0 3.2 0.00 0.00 0.00 95 1008.9
20260903102031 20 81 0.0 3.2 0.00 0.00 0.00 95 1008.8
20260903101527 20 103 0.0 3.2 0.00 0.00 0.00 95 1008.8
20260903101031 20 92 0.0 1.6 0.00 0.00 0.00 94 1008.7
20260903100527 20 77 0.0 4.8 0.00 0.00 0.00 94 1008.7
20260903100027 20 94 1.6 4.8 0.00 0.00 0.00 95 1008.8
20260903095528 20 84 0.0 4.8 0.00 0.00 0.00 95 1008.7
20260903095027 20 77 0.0 3.2 0.00 0.00 0.00 95 1008.7
20260903094526 19 82 0.0 3.2 0.00 0.00 0.00 95 1008.6
20260903094026 19 77 0.0 1.6 0.00 0.00 0.00 94 1008.6
20260903093525 20 83 0.0 1.6 0.00 0.00 0.00 93 1008.7
20260903093041 20 86 0.0 6.4 0.00 0.00 0.00 93 1008.7
20260903092523 20 92 0.0 8.0 0.00 0.00 0.00 93 1008.6
20260903092145 20 97 3.2 8.0 0.00 0.00 0.00 93 1008.6
20260903091019 20 101 3.2 4.8 0.00 0.00 0.00 93 1008.7
20260903090519 20 90 1.6 4.8 0.00 0.00 0.00 93 1008.8
20260903090018 20 87 0.0 6.4 0.00 0.00 0.00 92 1008.7
20260903085518 20 101 3.2 6.4 0.00 0.00 0.00 92 1008.7
20260903085018 20 88 1.6 4.8 0.00 0.00 0.00 92 1008.7
20260903084523 20 86 0.0 3.2 0.00 0.00 0.00 92 1008.8
20260903084017 20 81 0.0 6.4 0.00 0.00 0.00 92 1008.7
20260903083516 20 84 3.2 6.4 0.00 0.00 0.00 92 1008.8
20260903083015 20 96 3.2 6.4 0.00 0.00 0.00 93 1008.9
20260903082515 20 108 1.6 4.8 0.00 0.00 0.00 92 1008.9
20260903082015 20 84 1.6 4.8 0.00 0.00 0.00 92 1009.1
20260903081515 20 77 1.6 3.2 0.00 0.00 0.00 92 1009.0
20260903081014 20 94 0.0 3.2 0.00 0.00 0.00 91 1008.9
20260903080513 20 84 0.0 4.8 0.00 0.00 0.00 90 1009.0
20260903080135 20 91 1.6 4.8 0.00 0.00 0.00 90 1009.0
20260903075514 20 98 1.6 6.4 0.00 0.00 0.00 89 1009.0
20260903075013 20 113 1.6 6.4 0.00 0.00 0.00 90 1009.1
20260903074512 20 91 1.6 4.8 0.00 0.00 0.00 89 1009.0
20260903074011 20 95 0.0 4.8 0.00 0.00 0.00 88 1009.1
20260903073511 20 82 3.2 4.8 0.00 0.00 0.00 89 1009.2
20260903073011 20 117 1.6 3.2 0.00 0.00 0.00 89 1009.4
20260903072510 20 93 0.0 3.2 0.00 0.00 0.00 88 1009.3
20260903072010 20 85 0.0 4.8 0.00 0.00 0.00 88 1009.3
20260903071510 20 96 1.6 6.4 0.00 0.00 0.00 88 1009.3
20260903071009 20 101 3.2 6.4 0.00 0.00 0.00 88 1009.3
20260903070508 20 86 0.0 4.8 0.00 0.00 0.00 87 1009.4
20260903070007 20 99 1.6 4.8 0.00 0.00 0.00 87 1009.4
20260903065507 20 109 0.0 3.2 0.00 0.00 0.00 87 1009.5
20260903065006 20 84 0.0 4.8 0.00 0.00 0.00 86 1009.5
20260903064504 20 73 0.0 4.8 0.00 0.00 0.00 86 1009.6
20260903064007 20 86 1.6 4.8 0.00 0.00 0.00 85 1009.6
20260903063503 21 107 1.6 4.8 0.00 0.00 0.00 84 1009.5
20260903063002 21 101 1.6 6.4 0.00 0.00 0.00 84 1009.5
20260903062502 21 47 0.0 6.4 0.00 0.00 0.00 83 1009.5
20260903062101 21 105 3.2 6.4 0.00 0.00 0.00 83 1009.6
20260903061607 21 105 1.6 4.8 0.00 0.00 0.00 83 1009.6
20260903061059 21 105 3.2 6.4 0.00 0.00 0.00 83 1009.7
20260903060559 21 98 3.2 6.4 0.00 0.00 0.00 83 1009.7
20260903060059 21 96 3.2 6.4 0.00 0.00 0.00 82 1009.7
20260903055559 21 75 3.2 6.4 0.00 0.00 0.00 82 1009.7
20260903055058 21 65 3.2 6.4 0.00 0.00 0.00 83 1009.7
20260903054558 21 97 1.6 6.4 0.00 0.00 0.00 83 1009.7
20260903054059 21 65 3.2 6.4 0.00 0.00 0.00 83 1009.8
20260903053559 21 84 3.2 6.4 0.00 0.00 0.00 82 1009.8
20260903053055 21 79 1.6 4.8 0.00 0.00 0.00 82 1009.8
20260903052555 22 91 1.6 6.4 0.00 0.00 0.00 81 1009.7
20260903052055 22 101 3.2 6.4 0.00 0.00 0.00 81 1009.7
20260903051553 22 89 0.0 4.8 0.00 0.00 0.00 81 1009.8
20260903051051 22 81 1.6 6.4 0.00 0.00 0.00 81 1009.9
20260903050555 22 79 0.0 6.4 0.00 0.00 0.00 81 1010.0
20260903050050 22 67 1.6 6.4 0.00 0.00 0.00 81 1009.9
20260903045549 22 89 3.2 6.4 0.00 0.00 0.00 80 1010.0
20260903045048 22 111 1.6 6.4 0.00 0.00 0.00 81 1009.9
20260903044548 22 60 0.0 6.4 0.00 0.00 0.00 81 1010.0
20260903044048 22 73 0.0 6.4 0.00 0.00 0.00 80 1010.0
20260903043549 22 82 1.6 4.8 0.00 0.00 0.00 81 1010.0
20260903043048 22 79 0.0 4.8 0.00 0.00 0.00 81 1010.0
20260903042550 21 75 0.0 3.2 0.00 0.00 0.00 82 1010.0
20260903042051 21 47 0.0 3.2 0.00 0.00 0.00 82 1010.1
20260903041548 21 86 0.0 3.2 0.00 0.00 0.00 83 1010.2
20260903041049 21 90 0.0 3.2 0.00 0.00 0.00 83 1010.2
20260903040550 21 82 0.0 4.8 0.00 0.00 0.00 83 1010.2
20260903040048 21 77 1.6 4.8 0.00 0.00 0.00 83 1010.2
20260903035546 21 78 3.2 6.4 0.00 0.00 0.00 83 1010.2
20260903035049 21 82 0.0 3.2 0.00 0.00 0.00 82 1010.1
20260903034555 21 56 0.0 3.2 0.00 0.00 0.00 82 1010.2
20260903034046 21 77 0.0 3.2 0.00 0.00 0.00 82 1010.2
20260903033548 22 82 1.6 3.2 0.00 0.00 0.00 81 1010.2
20260903033046 22 82 0.0 3.2 0.00 0.00 0.00 80 1010.2
20260903032547 22 86 0.0 3.2 0.00 0.00 0.00 79 1010.2
20260903032043 22 97 0.0 6.4 0.00 0.00 0.00 78 1010.2
20260903031547 22 90 0.0 6.4 0.00 0.00 0.00 77 1010.1
20260903031044 22 94 1.6 4.8 0.00 0.00 0.00 77 1010.2
20260903030546 22 98 1.6 4.8 0.00 0.00 0.00 77 1010.1
20260903030043 22 85 0.0 4.8 0.00 0.00 0.00 76 1010.2
20260903025543 22 78 1.6 6.4 0.00 0.00 0.00 77 1010.3
20260903025044 22 79 1.6 4.8 0.00 0.00 0.00 78 1010.3
20260903024541 22 85 0.0 3.2 0.00 0.00 0.00 78 1010.2
20260903024041 22 82 0.0 3.2 0.00 0.00 0.00 77 1010.2
20260903023545 22 81 0.0 3.2 0.00 0.00 0.00 77 1010.2
20260903023040 23 72 0.0 4.8 0.00 0.00 0.00 76 1010.1
20260903022539 23 97 1.6 4.8 0.00 0.00 0.00 76 1010.1
20260903022041 23 86 0.0 3.2 0.00 0.00 0.00 75 1010.2
20260903021538 23 92 0.0 1.6 0.00 0.00 0.00 75 1010.1
20260903021038 23 97 0.0 3.2 0.00 0.00 0.00 74 1010.1
20260903020540 23 91 0.0 4.8 0.00 0.00 0.00 74 1010.1
20260903020050 23 93 1.6 4.8 0.00 0.00 0.00 74 1010.0
20260903015639 23 96 0.0 3.2 0.00 0.00 0.00 76 1010.0
20260903015040 23 85 0.0 1.6 0.00 0.00 0.00 77 1010.0
20260903014536 23 78 0.0 1.6 0.00 0.00 0.00 76 1010.0
20260903014034 23 78 0.0 1.6 0.00 0.00 0.00 76 1009.9
20260903013535 23 72 0.0 1.6 0.00 0.00 0.00 74 1009.8
20260903013034 24 68 0.0 1.6 0.00 0.00 0.00 73 1009.8
20260903012535 25 69 0.0 1.6 0.00 0.00 0.00 70 1009.7
20260903012036 25 86 0.0 1.6 0.00 0.00 0.00 68 1009.7
20260903011538 25 95 0.0 1.6 0.00 0.00 0.00 68 1009.7
20260903011032 25 89 0.0 3.2 0.00 0.00 0.00 67 1009.6
20260903010532 25 89 0.0 3.2 0.00 0.00 0.00 67 1009.6
20260903010031 25 103 0.0 3.2 0.00 0.00 0.00 66 1009.5
20260903005531 25 86 0.0 3.2 0.00 0.00 0.00 66 1009.5
20260903005032 26 111 0.0 1.6 0.00 0.00 0.00 65 1009.5
20260903004530 26 101 0.0 1.6 0.00 0.00 0.00 64 1009.5
20260903004030 26 101 0.0 1.6 0.00 0.00 0.00 63 1009.4
20260903003528 27 105 0.0 1.6 0.00 0.00 0.00 62 1009.4
20260903003028 28 64 0.0 1.6 0.00 0.00 0.00 61 1009.5
20260903002630 29 67 0.0 1.6 0.00 0.00 0.00 56 1009.6
20260903002028 30 152 0.0 0.0 0.00 0.00 0.00 51 1009.6
20260903001527 31 152 0.0 1.6 0.00 0.00 0.00 51 1009.5
20260903001033 31 127 0.0 1.6 0.00 0.00 0.00 51 1009.4
20260903000527 31 166 0.0 1.6 0.00 0.00 0.00 51 1009.4
20260903000027 31 122 0.0 1.6 0.00 0.00 0.00 51 1009.4
20260902235526 31 146 0.0 1.6 0.00 0.00 0.00 50 1009.6
20260902235025 31 175 0.0 3.2 0.00 0.00 0.00 51 1009.4
20260902234525 31 118 0.0 3.2 0.00 0.00 0.00 50 1009.4
20260902234025 31 111 0.0 4.8 0.00 0.00 0.00 49 1009.4
20260902233525 31 124 0.0 6.4 0.00 0.00 0.00 50 1009.5
20260902233025 31 204 0.0 3.2 0.00 0.00 0.00 49 1009.4
20260902232525 31 179 0.0 1.6 0.00 0.00 0.00 50 1009.4
20260902232026 30 123 0.0 3.2 0.00 0.00 0.00 51 1009.4
20260902231523 30 105 0.0 4.8 0.00 0.00 0.00 50 1009.3
20260902231022 30 68 0.0 8.0 0.00 0.00 0.00 49 1009.4
20260902230523 30 99 3.2 8.0 0.00 0.00 0.00 48 1009.5
20260902230023 30 118 0.0 6.4 0.00 0.00 0.00 50 1009.5
20260902225624 30 235 0.0 8.0 0.00 0.00 0.00 51 1009.5
20260902225023 30 110 0.0 6.4 0.00 0.00 0.00 51 1009.5
20260902224520 30 95 0.0 6.4 0.00 0.00 0.00 51 1009.5
20260902224019 30 110 1.6 6.4 0.00 0.00 0.00 48 1009.5
20260902223519 31 105 0.0 4.8 0.00 0.00 0.00 48 1009.6
20260902223027 31 53 0.0 3.2 0.00 0.00 0.00 47 1009.7
20260902222518 31 125 0.0 4.8 0.00 0.00 0.00 46 1009.6
20260902222017 31 61 0.0 4.8 0.00 0.00 0.00 47 1009.7
20260902221518 31 335 0.0 3.2 0.00 0.00 0.00 49 1009.6
20260902221015 31 110 0.0 4.8 0.00 0.00 0.00 50 1009.6
20260902220514 30 259 0.0 8.0 0.00 0.00 0.00 51 1009.7
20260902220020 29 253 0.0 8.0 0.00 0.00 0.00 53 1009.7
20260902215514 29 111 3.2 6.4 0.00 0.00 0.00 53 1009.7
20260902215013 28 64 0.0 8.0 0.00 0.00 0.00 54 1009.7
20260902214513 28 92 1.6 9.7 0.00 0.00 0.00 53 1009.8
20260902214012 28 96 1.6 9.7 0.00 0.00 0.00 53 1009.8
20260902213511 29 114 3.2 9.7 0.00 0.00 0.00 53 1009.9
20260902213011 29 120 1.6 8.0 0.00 0.00 0.00 53 1009.9
20260902212511 28 119 1.6 6.4 0.00 0.00 0.00 53 1009.9
20260902212011 28 88 1.6 6.4 0.00 0.00 0.00 53 1010.0
20260902211510 28 114 1.6 8.0 0.00 0.00 0.00 54 1010.0
20260902211011 28 110 3.2 9.7 0.00 0.00 0.00 53 1010.1
20260902210509 28 71 4.8 8.0 0.00 0.00 0.00 53 1010.1
20260902210010 29 91 4.8 9.7 0.00 0.00 0.00 52 1010.1
20260902205510 29 98 4.8 9.7 0.00 0.00 0.00 52 1010.2
20260902205008 29 156 1.6 9.7 0.00 0.00 0.00 50 1010.2
20260902204509 30 84 3.2 8.0 0.00 0.00 0.00 50 1010.1
20260902204006 30 158 1.6 8.0 0.00 0.00 0.00 50 1010.1
20260902203508 30 99 3.2 6.4 0.00 0.00 0.00 49 1010.3
20260902203006 30 153 0.0 4.8 0.00 0.00 0.00 51 1010.3
20260902202505 30 20 0.0 8.0 0.00 0.00 0.00 50 1010.3
20260902202005 30 219 1.6 9.7 0.00 0.00 0.00 48 1010.3
20260902201511 30 172 0.0 9.7 0.00 0.00 0.00 54 1010.3
20260902201002 30 295 0.0 9.7 0.00 0.00 0.00 54 1010.4
20260902200501 29 72 1.6 9.7 0.00 0.00 0.00 56 1010.5
20260902200101 29 127 3.2 8.0 0.00 0.00 0.00 55 1010.4
20260902195559 28 124 0.0 9.7 0.00 0.00 0.00 56 1010.4
20260902195057 28 223 1.6 12.9 0.00 0.00 0.00 57 1010.4
20260902194602 28 117 3.2 12.9 0.00 0.00 0.00 57 1010.5
20260902194057 28 113 8.0 14.5 0.00 0.00 0.00 57 1010.5
20260902193556 28 68 6.4 14.5 0.00 0.00 0.00 56 1010.5
20260902193059 28 77 0.0 9.7 0.00 0.00 0.00 58 1010.7
20260902192555 28 56 3.2 9.7 0.00 0.00 0.00 57 1010.7
20260902192056 28 65 1.6 8.0 0.00 0.00 0.00 57 1010.7
20260902191554 28 115 0.0 6.4 0.00 0.00 0.00 59 1010.8
20260902191052 28 122 0.0 6.4 0.00 0.00 0.00 59 1010.7
20260902190551 27 109 1.6 6.4 0.00 0.00 0.00 60 1010.8
20260902190050 27 58 0.0 6.4 0.00 0.00 0.00 58 1010.9
20260902185550 27 67 0.0 8.0 0.00 0.00 0.00 60 1010.9
20260902185051 27 93 3.2 12.9 0.00 0.00 0.00 60 1011.1
20260902184551 27 69 4.8 12.9 0.00 0.00 0.00 60 1011.1
20260902184051 27 34 6.4 11.3 0.00 0.00 0.00 58 1011.2
20260902183547 27 73 1.6 9.7 0.00 0.00 0.00 60 1011.3
20260902183047 27 174 0.0 8.0 0.00 0.00 0.00 60 1011.3
20260902182545 27 96 4.8 8.0 0.00 0.00 0.00 62 1011.4
20260902182045 26 61 0.0 8.0 0.00 0.00 0.00 61 1011.4
20260902181553 26 18 0.0 8.0 0.00 0.00 0.00 62 1011.4
20260902181046 26 101 1.6 11.3 0.00 0.00 0.00 63 1011.4
20260902180545 26 173 3.2 14.5 0.00 0.00 0.00 60 1011.4
20260902180045 26 115 6.4 14.5 0.00 0.00 0.00 64 1011.4
20260902175544 26 117 6.4 12.9 0.00 0.00 0.00 59 1011.4
20260902175047 27 84 4.8 9.7 0.00 0.00 0.00 60 1011.5
20260902174547 27 78 3.2 9.7 0.00 0.00 0.00 61 1011.6
20260902174044 27 122 0.0 8.0 0.00 0.00 0.00 60 1011.6
20260902173543 27 101 1.6 8.0 0.00 0.00 0.00 60 1011.7
20260902173046 27 214 0.0 9.7 0.00 0.00 0.00 59 1011.7
20260902172541 27 72 1.6 9.7 0.00 0.00 0.00 64 1011.8
20260902172040 27 82 1.6 8.0 0.00 0.00 0.00 64 1011.8
20260902171548 26 160 0.0 8.0 0.00 0.00 0.00 65 1011.8
20260902171038 26 109 1.6 8.0 0.00 0.00 0.00 66 1011.8
20260902170536 26 85 0.0 6.4 0.00 0.00 0.00 70 1011.8
20260902170035 25 187 0.0 4.8 0.00 0.00 0.00 72 1012.1
20260902165534 25 103 1.6 8.0 0.00 0.00 0.00 71 1012.2
20260902165033 25 92 1.6 8.0 0.00 0.00 0.00 71 1012.1
20260902164533 25 67 3.2 8.0 0.00 0.00 0.00 69 1012.1
20260902164030 24 50 0.0 8.0 0.00 0.00 0.00 70 1012.0
20260902163531 24 103 4.8 9.7 0.00 0.00 0.00 69 1011.9
20260902163030 24 82 4.8 9.7 0.00 0.00 0.00 70 1011.9
20260902162528 24 110 4.8 9.7 0.00 0.00 0.00 71 1011.9
20260902162028 24 118 0.0 4.8 0.00 0.00 0.00 72 1012.1
20260902161528 24 96 1.6 6.4 0.00 0.00 0.00 72 1011.9
20260902161030 24 110 1.6 6.4 0.00 0.00 0.00 72 1012.0
20260902160527 24 51 0.0 9.7 0.00 0.00 0.00 71 1012.0
20260902160026 24 91 3.2 8.0 0.00 0.00 0.00 74 1011.9
20260902155525 23 20 0.0 4.8 0.00 0.00 0.00 75 1012.0
20260902155025 23 104 0.0 4.8 0.00 0.00 0.00 75 1011.9
20260902154527 23 65 0.0 1.6 0.00 0.00 0.00 75 1012.0
20260902154024 23 50 0.0 1.6 0.00 0.00 0.00 74 1012.0
20260902153523 23 65 0.0 1.6 0.00 0.00 0.00 78 1012.1
20260902153021 23 231 0.0 1.6 0.00 0.00 0.00 80 1012.1
20260902152520 22 298 0.0 3.2 0.00 0.00 0.00 80 1012.2
20260902152020 22 294 0.0 4.8 0.00 0.00 0.00 81 1012.0
20260902151521 22 83 0.0 4.8 0.00 0.00 0.00 80 1011.7
20260902151020 22 77 0.0 3.2 0.00 0.00 0.00 80 1011.6
20260902150520 22 104 0.0 4.8 0.00 0.00 0.00 79 1011.7